• Join FlightAware (Why Join?)
  • Login
  • US Flag 
02:44AM EDT


 

Airport Tracker/Info


-or-


 

Live Flight TrackerFlight Track Log ✈ AWI3704 ✈ 12-Sep-2013 ✈ KILM - KPHL

Flight Track Log - Related Links

Times and Time Zones

All times are in EDT time to prevent confusion due to time zone crossing. See the AWI3704 flight status page for this flight to view local times or setup timezone preferences in your user account.

Time Position Orientation Groundspeed Altitude Reporting Facility
EDT Latitude Longitude Course Direction KTS MPH feet Rate Location/Type
07:14AM 34.3197 -77.8400 15° North 207 238 2,400  Level Washington Center
07:15AM 34.3847 -77.8167 17° North 219 252 4,000 1,920 Climbing Washington Center
07:16AM 34.5677 -77.7714 14° North  Level Estimated
07:16AM 34.4583 -77.7986 11° North 244 281 6,300  Level Washington Center
07:17AM 34.6716 -77.7500 10° North  Level FlightAware Approximate
07:17AM 34.5358 -77.7778 12° North 268 308 8,700  Level Washington Center
07:18AM 34.7705 -77.7056 North  Level Estimated
07:18AM 34.6156 -77.7572 12° North 281 323 10,700  Level Washington Center
07:19AM 34.8694 -77.6611 13° North  Level Estimated
07:19AM 34.7036 -77.7344 12° North 298 343 11,800  Level Washington Center
07:20AM 34.9682 -77.6165 15° North  Level Estimated
07:20AM 34.8042 -77.7117 11° North 331 381 12,600  Level Washington Center
07:21AM 34.9089 -77.6789 14° North 359 413 13,600 960 Climbing Washington Center
07:22AM 35.0158 -77.6514 12° North 385 443 14,600 960 Climbing Washington Center
07:23AM 35.1269 -77.6211 13° North 395 455 15,600 960 Climbing Washington Center
07:24AM 35.2358 -77.5933 12° North 395 455 16,600 960 Climbing Washington Center
07:25AM 35.3469 -77.5656 12° North 395 455 17,600 900 Climbing Washington Center
07:26AM 35.4439 -77.4967 30° Northeast 395 455 18,500 960 Climbing Washington Center
07:27AM 35.5369 -77.4169 35° Northeast 390 449 19,600 1,020 Climbing Washington Center
07:28AM 35.6281 -77.3372 35° Northeast 401 461 20,600 840 Climbing Washington Center
07:29AM 35.7189 -77.2550 36° Northeast 401 461 21,300 660 Climbing Washington Center
07:30AM 35.8119 -77.1722 36° Northeast 406 467 21,900 600 Climbing Washington Center
07:31AM 35.9003 -77.1075 31° Northeast 414 476 22,600 600 Climbing Washington Center
07:32AM 36.0014 -77.0350 30° Northeast 409 471 23,200 540 Climbing Washington Center
07:33AM 36.1022 -76.9597 31° Northeast 409 471 23,700 480 Climbing Washington Center
07:34AM 36.2056 -76.8817 31° Northeast 416 479 24,200 480 Climbing Washington Center
07:35AM 36.3106 -76.8086 29° Northeast 421 484 24,700 480 Climbing Washington Center
07:36AM 36.4136 -76.7303 31° Northeast 426 490 25,200 480 Climbing Washington Center
07:37AM 36.5186 -76.6517 31° Northeast 426 490 25,700 480 Climbing Washington Center
07:38AM 36.6236 -76.5753 30° Northeast 431 496 26,200 540 Climbing Washington Center
07:39AM 36.7286 -76.4936 32° Northeast 431 496 26,800 360 Climbing Washington Center
07:40AM 36.8314 -76.4119 32° Northeast 431 496 27,000 60 Climbing Washington Center
07:41AM 36.9383 -76.3300 31° Northeast 438 504 27,000  Level Washington Center
07:42AM 37.0492 -76.2450 31° Northeast 448 516 27,000  Level Washington Center
07:43AM 37.1581 -76.1625 31° Northeast 453 521 27,000  Level Washington Center
07:44AM 37.2753 -76.0800 29° Northeast 458 527 27,000  Level Washington Center
07:45AM 37.3861 -75.9917 32° Northeast 468 539 27,000  Level Washington Center
07:46AM 37.4992 -75.9058 31° Northeast 468 539 27,000  Level Washington Center
07:47AM 37.6119 -75.8172 32° Northeast 473 544 27,000 -600 Level Washington Center
07:48AM 37.7225 -75.7336 31° Northeast 473 544 25,900 -1,560 Descending Washington Center
07:49AM 37.8394 -75.6444 31° Northeast 478 550 24,000 -1,680 Descending Washington Center
07:50AM 37.9458 -75.5603 32° Northeast 473 544 22,500 -1,380 Descending Washington Center
07:51AM 38.0564 -75.4731 32° Northeast 468 539 21,300 -1,260 Descending Washington Center
07:52AM 38.1689 -75.3964 28° Northeast 463 533 20,100 -1,200 Descending Washington Center
07:53AM 38.2811 -75.3247 27° Northeast 452 520 18,900 -1,200 Descending Washington Center
07:54AM 38.4000 -75.2500 26° Northeast 441 507 17,700 -1,200 Descending Washington Center
07:55AM 38.5039 -75.1831 27° Northeast 430 495 16,600 -1,140 Descending Washington Center
07:56AM 38.6122 -75.1161 26° Northeast 425 489 15,500 -1,140 Descending Washington Center
07:57AM 38.7181 -75.0461 27° Northeast 420 483 14,400 -960 Descending Washington Center
07:58AM 38.8242 -74.9789 26° Northeast 420 483 13,600 -780 Descending Washington Center
07:59AM 38.9322 -74.9297 19° North 420 483 12,900 -600 Descending Washington Center
08:00AM 39.0469 -74.9261 North 410 472 12,500 -1,020 Descending Washington Center
08:01AM 39.1489 -74.9225 North 405 466 10,900 -1,260 Descending Washington Center
08:02AM 39.2594 -74.9133 North 400 460 10,000 -480 Descending Washington Center
08:03AM 39.3833 -74.9167 359° North 373 429 10,000  Level Philadelphia TRACON
08:04AM 39.4000 -74.9167 360° North 351 404 10,000 -780 Level Philadelphia TRACON
08:05AM 39.4833 -74.9500 343° North 298 343 9,100 -1,020 Descending Philadelphia TRACON
08:06AM 39.5333 -75.0333 308° West 262 302 8,000 -1,140 Descending Philadelphia TRACON
08:07AM 39.5500 -75.1000 288° West 230 265 6,900 -1,200 Descending Philadelphia TRACON
08:08AM 39.5667 -75.1833 285° West 225 259 5,700 -1,380 Descending Philadelphia TRACON
08:09AM 39.6333 -75.2000 349° North 241 277 4,200 -1,380 Descending Philadelphia TRACON
08:10AM 39.6833 -75.1500 38° Northeast 248 285 3,000 -600 Descending Philadelphia TRACON
08:11AM 39.7500 -75.1667 349° North 195 224 3,000 -600 Level Philadelphia TRACON
08:12AM 39.8000 -75.1833 346° North 192 221 1,900 -1,080 Descending Philadelphia TRACON
08:13AM 39.8333 -75.2167 322° Northwest 135 155 900 -1,020 Descending Philadelphia TRACON